MDT,Max TemperatureF,Mean TemperatureF,Min TemperatureF,Max Dew PointF,MeanDew PointF,Min DewpointF,Max Humidity, Mean Humidity, Min Humidity, Max Sea Level PressureIn, Mean Sea Level PressureIn, Min Sea Level PressureIn, Max VisibilityMiles, Mean VisibilityMiles, Min VisibilityMiles, Max Wind SpeedMPH, Mean Wind SpeedMPH, Max Gust SpeedMPH,PrecipitationIn, CloudCover, Events, WindDirDegrees
2012-3-1,21,13,5,16,9,0,92,77,61,29.73,29.65,29.57,10,4,0,24,7,31,0.11,8,Fog-Snow,24
2012-3-2,14,5,-5,3,-3,-10,87,68,48,30.17,29.88,29.68,10,7,0,20,8,26,0.03,7,Snow,19
2012-3-3,20,10,-1,11,1,-8,79,69,59,30.33,30.18,29.98,10,6,2,26,14,37,T,7,Snow,350
2012-3-4,38,24,10,15,11,6,80,59,37,30.31,30.24,30.15,10,10,10,26,8,32,0.00,3,,13
2012-3-5,40,23,6,7,3,-2,76,49,21,30.25,30.09,29.91,10,9,0,23,7,31,0.00,0,Fog,25
2012-3-6,43,28,13,13,2,-9,51,32,13,29.86,29.58,29.38,10,10,10,29,10,43,0.00,0,,220
2012-3-7,34,24,14,15,9,0,84,57,30,30.02,29.63,29.38,10,10,10,25,11,32,T,2,,240
2012-3-8,37,22,7,13,5,-5,91,56,20,30.53,30.30,30.04,10,10,10,13,4,15,0.00,1,,69
2012-3-9,43,22,1,7,0,-8,83,49,14,30.52,30.35,30.16,10,10,10,12,5,16,0.00,0,,156
2012-3-10,44,25,5,20,8,-6,88,58,27,30.22,29.98,29.78,10,10,10,17,5,22,0.00,1,,119
2012-3-11,39,29,18,15,9,5,84,56,27,29.80,29.72,29.66,10,10,10,24,9,32,0.00,0,,15
2012-3-12,43,32,21,10,7,4,54,38,22,29.99,29.88,29.74,10,10,10,20,6,25,0.00,0,,354
2012-3-13,46,32,17,7,1,-8,61,36,11,29.98,29.89,29.79,10,10,10,20,7,28,0.00,0,,163
2012-3-14,45,34,22,7,-2,-8,42,28,13,30.06,29.94,29.82,10,10,10,18,6,25,0.00,0,,206
2012-3-15,48,32,16,18,11,1,68,47,26,30.17,30.06,29.99,10,10,10,15,3,21,0.00,0,,184
2012-3-16,48,33,18,17,12,7,77,48,19,30.00,29.88,29.78,10,10,10,18,5,29,0.00,0,,234
2012-3-17,47,33,18,13,10,5,57,37,17,29.78,29.65,29.48,10,10,10,24,7,31,0.00,0,,195
2012-3-18,40,27,13,27,18,1,92,62,32,29.50,29.39,29.15,10,6,0,38,15,52,0.08,5,Fog-Snow,192
2012-3-19,21,12,2,7,2,-9,88,58,28,29.71,29.53,29.41,10,10,10,22,8,28,T,4,,8
2012-3-20,27,16,5,5,3,0,80,57,33,30.08,29.91,29.71,10,10,5,21,10,25,0.00,2,,25
2012-3-21,39,26,13,18,14,4,74,57,40,30.12,30.01,29.92,10,10,10,20,10,25,0.00,3,,18
2012-3-22,49,34,18,17,13,5,84,52,19,30.03,29.92,29.78,10,10,10,18,8,24,0.00,0,,32
2012-3-23,56,36,16,15,11,3,73,43,12,30.09,29.95,29.85,10,10,10,16,4,23,0.00,0,,67
2012-3-24,54,37,20,16,12,6,73,44,15,30.09,29.97,29.90,10,10,10,17,5,22,0.00,0,,169
2012-3-25,57,41,25,20,15,10,74,45,16,30.01,29.88,29.70,10,10,10,31,8,44,0.00,1,,204
2012-3-26,50,39,28,17,7,0,42,28,13,29.75,29.59,29.39,10,10,10,45,17,58,0.00,0,,215
2012-3-27,50,38,25,14,8,-1,55,34,13,29.97,29.87,29.73,10,10,10,20,8,25,0.00,1,,21
2012-3-28,51,37,23,14,10,7,59,38,16,29.95,29.87,29.79,10,10,10,20,6,32,0.00,0,,178
2012-3-29,50,38,25,18,11,4,51,35,19,30.17,29.84,29.74,10,10,10,20,7,25,0.00,1,,327
2012-3-30,52,41,30,20,17,14,58,41,24,29.88,29.83,29.78,10,10,10,18,8,24,0.00,1,,18
2012-3-31,59,44,29,24,15,4,69,41,12,29.90,29.76,29.60,10,10,10,20,6,26,0.00,0,,70